Wind_Speed
40 38 38 36 35 34 33 32 31 31 30 30 30 30 30 31 31 30 30 34 38 39 40 34 35 31 23 11 6 2 4 7 11 13 14 10 6 10 11 14 22 24 28 26 26
40 39 38 36 35 34 34 31 31 30 29 27 29 29 30 31 31 30 30 32 35 38 37 33 33 28 20 8 5 3 6 7 9 5 4 2 6 10 11 14 13 17 19 23 25
41 40 39 37 37 36 37 33 32 30 28 27 29 29 30 31 31 29 28 31 33 36 33 30 29 25 18 7 1 6 8 8 6 5 2 2 6 12 13 6 8 14 17 14 15
44 42 40 39 38 36 36 34 33 31 29 28 28 27 28 30 28 27 27 30 32 34 30 28 26 20 18 4 0 5 7 6 3 4 3 5 9 6 16 15 13 16 20 23 26
44 43 44 41 39 38 37 36 33 31 30 33 29 26 30 28 27 25 26 29 30 32 27 27 24 16 14 2 3 2 8 8 7 3 4 7 9 9 13 16 19 18 21 22 23
48 45 43 44 42 40 38 37 36 34 30 32 29 29 26 25 26 24 23 27 29 29 26 26 24 14 13 3 4 2 5 9 8 8 7 10 13 13 15 19 18 17 15 19 21
48 49 48 45 44 44 40 38 36 35 34 33 31 28 27 25 25 24 22 27 27 27 24 25 23 13 10 6 7 8 6 6 7 10 11 11 9 8 4 1 5 3 5 20 19
53 49 49 50 46 44 43 40 39 36 37 37 32 31 29 27 25 24 23 26 26 26 23 23 21 12 7 8 11 10 7 7 14 13 7 5 4 2 5 6 12 12 19 19 23
55 53 51 51 49 45 44 41 40 37 38 33 30 32 33 30 27 24 24 26 23 23 21 22 19 10 6 6 11 12 5 2 7 3 10 10 8 4 2 3 3 10 15 15 14
58 57 55 54 53 51 48 44 40 39 36 32 28 28 28 32 30 27 24 25 24 20 19 19 15 10 6 5 9 12 6 2 5 4 7 9 9 8 3 4 3 5 7 9 12
53 56 57 56 55 54 52 48 45 39 37 34 31 30 27 27 30 27 25 25 23 20 17 16 12 12 9 9 15 19 10 8 8 5 7 10 6 5 6 6 7 4 6 9 10
58 56 54 54 53 53 51 52 46 45 37 35 36 30 31 29 29 26 25 24 21 18 17 15 11 10 3 6 13 20 13 7 9 5 7 8 9 7 7 4 5 9 5 7 9
61 60 58 57 55 52 51 50 47 48 47 33 35 30 31 33 29 26 26 24 21 15 16 14 11 8 6 8 11 20 15 11 9 6 11 10 11 8 9 5 4 10 8 5 6
65 63 62 61 60 56 52 51 47 47 48 36 35 35 32 31 30 29 28 27 21 16 15 12 10 5 10 7 6 9 19 16 14 10 7 7 6 13 11 10 5 4 8 7 8
70 66 65 64 62 59 54 51 49 45 45 39 34 36 33 34 25 29 32 29 22 19 15 12 11 5 9 11 7 10 13 19 17 12 11 8 7 16 13 13 10 10 10 10 9
72 71 69 68 65 61 58 54 50 45 48 39 34 32 30 32 29 34 32 27 25 22 17 12 10 8 11 12 9 7 12 12 12 12 14 11 9 9 10 17 16 12 14 13 13
66 68 71 71 67 63 61 56 51 52 49 41 37 35 30 29 30 36 37 31 27 22 16 14 13 15 14 15 12 8 11 11 11 14 12 12 12 8 9 15 20 17 19 18 20
71 76 75 70 71 68 64 60 60 53 44 42 39 40 37 32 33 37 39 36 31 24 22 16 19 19 17 17 17 15 16 16 16 13 11 11 10 9 14 14 17 20 29 22 20
72 78 79 75 74 73 71 69 62 51 45 40 43 43 39 37 36 38 40 37 29 26 23 19 21 19 24 23 22 19 21 20 20 19 17 17 15 12 13 17 14 15 16 22 20
52 65 78 76 74 75 76 75 59 50 44 46 45 44 42 40 40 39 43 38 34 28 27 22 23 22 26 26 24 24 25 24 26 25 23 19 17 10 17 17 15 16 19 20 22
62 56 54 76 78 81 83 71 55 56 52 51 48 46 43 41 42 43 43 37 32 30 28 24 24 24 24 28 27 25 27 29 28 27 23 21 16 12 13 21 20 19 20 23 23
62 57 51 63 84 85 82 65 62 62 58 55 50 49 48 44 43 45 45 33 32 31 30 22 26 30 25 27 27 29 30 32 32 28 23 24 14 19 17 20 22 23 21 21 24
60 61 64 60 78 85 77 69 70 68 64 58 50 48 47 50 48 47 45 35 34 34 32 27 28 30 29 28 30 29 28 28 32 30 27 27 17 17 15 18 19 22 22 22 22
64 66 69 64 61 77 76 75 74 72 66 59 49 48 49 49 48 52 41 38 38 38 33 31 30 28 27 24 25 27 24 23 26 31 29 31 25 21 24 22 20 21 22 23 22
66 68 63 61 58 60 77 77 74 77 69 64 54 52 50 45 50 55 51 38 38 36 35 36 33 28 24 24 31 30 31 30 32 29 31 30 28 21 23 23 22 21 21 23 23
67 62 56 57 61 54 75 81 81 76 72 62 56 52 47 47 49 43 42 42 37 34 35 37 32 28 23 23 27 29 26 32 33 33 32 28 29 21 21 24 24 23 24 25 24
66 61 57 55 59 52 71 76 78 77 72 64 55 47 47 42 42 41 49 39 37 36 36 38 33 28 24 22 25 28 24 23 25 24 24 27 24 25 26 27 26 26 28 30 30
Wind_Direction
268 269 268 267 267 270 271 275 277 282 286 292 297 303 305 308 309 311 311 314 320 329 336 336 338 341 346 341 320 278 175 173 187 196 215 232 238 245 239 238 238 236 239 237 233
264 265 266 267 267 272 274 273 276 277 281 288 297 302 307 306 307 309 310 311 321 330 335 336 340 342 345 338 328 234 184 194 205 211 206 193 233 243 254 227 238 229 236 245 242
262 262 265 265 267 267 269 273 271 272 275 282 293 298 307 301 303 306 308 311 322 330 335 336 341 345 341 336 323 197 176 200 189 163 184 184 239 255 272 248 232 243 244 243 245
263 262 262 263 264 266 269 269 270 272 274 280 285 289 298 297 303 306 304 308 321 329 333 337 342 345 340 349 318 202 197 236 216 249 295 330 306 280 273 289 267 249 249 253 258
265 265 265 262 261 261 263 268 268 271 276 273 274 286 290 297 300 303 302 307 319 328 331 338 337 341 336 109 108 190 228 221 221 272 293 277 284 293 290 292 293 274 247 254 263
264 264 265 265 265 264 263 265 267 271 275 273 273 283 289 296 295 299 298 303 316 324 329 338 336 333 330 191 146 154 208 221 221 220 247 275 290 296 305 303 294 282 272 269 272
258 262 265 265 265 266 266 267 265 266 269 267 265 276 281 291 296 294 292 298 311 321 329 334 338 330 322 223 167 190 191 213 193 200 204 258 304 294 273 213 73 93 159 210 203
259 259 261 265 265 264 265 266 267 268 268 268 268 262 275 283 291 293 285 294 307 317 327 332 339 326 306 227 180 202 199 258 188 210 193 169 326 10 51 57 74 80 88 82 98
260 261 260 262 265 265 264 263 265 265 268 275 274 265 260 268 281 285 282 287 300 313 324 330 339 328 287 246 194 204 249 355 18 188 212 134 146 155 137 94 62 88 107 115 125
260 259 259 258 260 263 264 262 257 259 262 268 263 273 268 261 267 274 274 280 292 308 320 326 334 340 268 239 203 213 206 83 313 15 213 158 165 178 196 147 106 145 162 133 145
257 259 257 258 259 260 261 262 260 254 257 259 262 259 272 270 252 264 268 271 286 300 314 320 324 339 268 246 222 203 205 213 238 284 233 172 194 242 219 232 157 160 163 156 158
256 256 257 256 255 258 258 260 259 260 253 256 259 262 262 261 248 254 259 266 278 292 303 310 313 341 252 217 207 211 205 238 232 255 230 199 220 265 280 260 191 185 188 179 169
251 252 252 255 256 255 256 257 257 257 262 255 258 259 261 256 247 246 250 256 267 277 291 298 304 335 185 169 196 213 210 229 235 255 236 219 243 235 232 218 176 185 191 191 205
247 247 248 249 252 251 250 253 255 256 257 254 253 252 254 257 244 242 244 246 257 267 278 287 290 302 199 190 194 217 216 220 240 234 221 216 239 251 228 229 223 225 204 219 215
251 247 246 245 249 249 247 248 250 251 258 255 244 252 249 258 245 244 242 248 252 254 261 265 272 270 200 199 208 245 208 222 236 222 214 224 212 263 245 220 232 243 233 231 234
250 247 243 243 243 245 245 243 243 241 247 250 247 244 246 247 240 236 238 241 245 242 248 258 249 233 205 210 213 259 236 231 231 222 234 238 235 248 256 217 215 249 256 247 250
242 242 242 240 241 240 240 238 235 236 244 240 244 241 240 240 239 240 247 237 243 249 253 252 237 225 218 222 223 242 227 234 234 244 256 259 255 218 233 227 234 254 254 263 263
232 230 228 232 235 237 236 233 230 242 235 240 236 241 240 238 236 232 240 230 229 236 229 240 240 227 223 225 228 236 222 223 232 244 250 249 253 255 252 255 260 256 252 249 259
235 231 226 223 227 231 231 229 232 232 234 229 234 237 237 235 232 229 237 234 232 235 237 238 237 231 219 223 225 231 227 231 235 241 248 260 266 274 260 265 264 262 256 237 241
241 240 229 223 221 225 225 229 227 223 223 223 227 231 235 236 234 227 230 228 222 219 226 228 239 231 223 224 228 229 233 234 242 248 258 264 261 262 285 274 261 231 233 234 239
239 240 234 227 221 220 223 222 221 217 215 220 223 229 228 229 232 229 228 221 216 215 226 230 234 233 229 227 232 235 238 239 240 244 252 256 266 286 266 262 266 253 233 235 243
237 235 233 226 226 222 220 213 216 212 213 218 218 218 221 225 228 227 219 212 210 213 228 237 240 235 232 232 232 233 235 236 238 247 252 256 249 299 284 257 257 257 251 247 246
235 231 230 229 221 226 223 213 216 212 213 212 215 213 218 223 222 225 214 199 207 211 220 225 234 235 230 233 233 233 239 243 243 247 248 251 264 285 272 260 248 254 260 259 257
229 228 227 228 226 225 225 217 217 214 209 214 211 215 218 222 222 218 207 202 208 211 216 217 228 233 237 243 240 238 243 242 245 247 245 253 265 277 275 266 259 255 261 266 264
223 227 228 226 227 230 223 220 217 218 213 209 203 210 218 219 217 211 207 203 211 214 216 219 228 230 230 228 234 239 237 239 242 246 247 259 268 272 265 257 255 262 265 265 269
222 223 223 225 224 227 221 215 219 218 219 212 201 206 212 214 210 208 203 200 208 216 218 220 225 228 224 226 230 236 239 244 246 247 252 259 267 277 265 261 264 264 266 271 273
216 221 218 222 223 227 217 217 216 221 217 217 210 208 211 213 210 214 208 199 206 209 215 222 222 221 220 223 234 241 240 250 256 251 253 257 266 263 266 265 263 263 263 267 270
Height
5819 5820 5821 5822 5823 5823 5825 5826 5827 5827 5827 5826 5824 5823 5821 5818 5817 5814 5810 5807 5803 5798 5792 5787 5781 5775 5770 5768 5766 5764 5765 5767 5767 5768 5768 5769 5770 5770 5771 5771 5772 5773 5774 5777 5779
5809 5811 5813 5814 5816 5817 5818 5818 5820 5820 5821 5820 5819 5818 5816 5814 5812 5810 5807 5803 5799 5795 5789 5784 5779 5774 5770 5767 5765 5764 5766 5767 5767 5769 5769 5770 5770 5770 5769 5768 5769 5770 5770 5772 5774
5801 5802 5804 5806 5808 5809 5811 5812 5813 5813 5814 5814 5813 5813 5811 5810 5808 5805 5802 5799 5796 5792 5786 5782 5778 5772 5769 5766 5765 5764 5766 5767 5769 5770 5770 5770 5769 5767 5767 5766 5767 5768 5769 5769 5771
5793 5794 5795 5797 5799 5801 5803 5805 5806 5807 5808 5808 5808 5807 5806 5805 5803 5801 5798 5795 5792 5789 5784 5780 5777 5772 5769 5766 5764 5765 5766 5767 5768 5769 5769 5768 5767 5766 5765 5765 5764 5764 5765 5765 5766
5784 5786 5787 5788 5790 5792 5795 5797 5799 5800 5801 5801 5802 5801 5801 5800 5797 5796 5794 5791 5789 5787 5782 5778 5775 5771 5769 5766 5765 5765 5765 5766 5767 5768 5767 5766 5765 5764 5761 5760 5759 5759 5760 5760 5759
5774 5776 5778 5780 5782 5784 5786 5788 5792 5793 5794 5795 5795 5795 5794 5794 5792 5792 5790 5787 5786 5784 5780 5777 5773 5771 5769 5766 5765 5764 5764 5764 5765 5765 5765 5765 5764 5763 5760 5757 5754 5752 5753 5754 5752
5763 5766 5769 5771 5773 5776 5778 5780 5783 5786 5787 5787 5789 5788 5788 5788 5787 5787 5786 5784 5782 5781 5778 5774 5771 5769 5767 5766 5764 5764 5764 5764 5764 5763 5764 5763 5764 5761 5759 5756 5753 5749 5747 5750 5746
5752 5755 5759 5762 5764 5767 5770 5771 5775 5778 5778 5779 5780 5781 5782 5783 5782 5782 5782 5779 5779 5777 5775 5772 5769 5766 5765 5765 5764 5764 5764 5764 5763 5764 5764 5765 5763 5761 5759 5756 5755 5751 5749 5749 5747
5741 5743 5747 5752 5754 5758 5761 5762 5766 5769 5771 5772 5773 5774 5775 5777 5777 5777 5778 5775 5773 5773 5772 5769 5767 5764 5763 5763 5765 5765 5768 5765 5765 5765 5763 5764 5764 5763 5761 5758 5758 5757 5755 5754 5754
5729 5731 5734 5739 5744 5747 5750 5754 5756 5760 5763 5765 5767 5768 5769 5769 5770 5771 5773 5771 5770 5769 5769 5767 5765 5762 5761 5762 5768 5766 5766 5767 5767 5766 5764 5764 5765 5764 5762 5760 5759 5759 5759 5758 5759
5716 5720 5723 5726 5731 5736 5740 5743 5748 5751 5755 5758 5761 5759 5762 5762 5763 5765 5768 5767 5766 5766 5765 5765 5764 5761 5758 5759 5759 5762 5763 5766 5766 5765 5765 5766 5766 5765 5763 5761 5759 5760 5761 5761 5762
5703 5707 5710 5714 5718 5723 5728 5732 5736 5740 5747 5748 5751 5756 5754 5754 5756 5758 5763 5763 5762 5762 5762 5762 5761 5758 5755 5755 5758 5761 5762 5764 5765 5765 5765 5766 5767 5766 5764 5763 5762 5761 5761 5763 5763
5688 5693 5697 5701 5705 5710 5716 5719 5725 5728 5733 5744 5743 5749 5747 5746 5749 5753 5756 5757 5757 5758 5759 5759 5758 5755 5754 5754 5757 5759 5760 5763 5765 5764 5764 5765 5766 5766 5765 5764 5764 5763 5763 5763 5764
5672 5678 5682 5688 5694 5698 5705 5708 5712 5717 5722 5734 5735 5739 5739 5740 5743 5746 5750 5751 5753 5754 5755 5756 5754 5753 5753 5754 5756 5757 5758 5759 5761 5763 5766 5765 5770 5765 5764 5763 5763 5763 5764 5764 5764
5653 5661 5667 5673 5681 5686 5693 5696 5701 5707 5711 5718 5726 5728 5734 5734 5741 5741 5744 5743 5748 5749 5752 5752 5750 5751 5751 5753 5753 5756 5755 5757 5758 5760 5763 5764 5766 5763 5763 5763 5763 5762 5762 5763 5763
5632 5642 5651 5658 5666 5672 5678 5684 5689 5697 5699 5707 5715 5720 5723 5726 5730 5733 5736 5738 5743 5744 5745 5746 5747 5748 5749 5750 5750 5753 5755 5755 5757 5758 5761 5762 5764 5765 5762 5763 5762 5761 5761 5762 5763
5608 5619 5631 5641 5651 5654 5662 5669 5676 5681 5690 5701 5705 5711 5715 5717 5722 5726 5728 5732 5737 5741 5742 5742 5743 5744 5745 5747 5748 5750 5752 5755 5757 5757 5759 5759 5760 5762 5761 5760 5761 5761 5760 5759 5759
5585 5595 5607 5622 5631 5638 5644 5650 5656 5677 5683 5689 5696 5700 5706 5709 5713 5717 5720 5723 5728 5735 5735 5738 5738 5741 5742 5743 5745 5747 5749 5752 5753 5753 5757 5755 5756 5758 5757 5757 5758 5757 5756 5757 5756
5565 5574 5588 5605 5611 5616 5621 5625 5649 5666 5675 5681 5686 5691 5696 5700 5704 5708 5712 5718 5725 5729 5731 5733 5733 5735 5736 5738 5741 5743 5745 5747 5748 5750 5751 5752 5753 5753 5753 5753 5753 5752 5751 5753 5753
5551 5556 5572 5588 5591 5596 5596 5610 5643 5658 5665 5669 5675 5682 5687 5692 5695 5699 5702 5710 5715 5722 5724 5727 5727 5729 5730 5733 5735 5738 5741 5743 5743 5745 5746 5747 5748 5751 5747 5746 5747 5748 5748 5749 5750
5535 5543 5563 5570 5571 5569 5573 5608 5638 5641 5650 5656 5665 5671 5677 5681 5688 5691 5696 5703 5710 5715 5717 5720 5721 5723 5725 5727 5731 5733 5735 5737 5739 5740 5741 5742 5745 5744 5743 5741 5741 5742 5743 5744 5745
5520 5535 5543 5544 5546 5552 5564 5609 5622 5626 5634 5643 5651 5658 5666 5672 5678 5682 5687 5698 5704 5708 5709 5714 5714 5715 5719 5721 5724 5726 5728 5731 5733 5736 5737 5737 5740 5739 5737 5736 5736 5736 5737 5738 5739
5508 5517 5520 5524 5527 5546 5574 5591 5598 5608 5618 5629 5640 5649 5655 5662 5669 5673 5681 5688 5696 5699 5701 5705 5706 5709 5712 5716 5716 5718 5722 5726 5727 5729 5731 5731 5735 5733 5733 5732 5732 5732 5731 5733 5733
5489 5494 5500 5515 5530 5538 5566 5575 5580 5592 5603 5614 5629 5639 5647 5653 5658 5667 5672 5679 5685 5692 5694 5696 5699 5703 5706 5711 5713 5714 5718 5719 5720 5721 5725 5725 5728 5729 5727 5727 5727 5726 5726 5726 5728
5468 5476 5495 5507 5516 5530 5546 5566 5574 5578 5590 5600 5614 5627 5636 5643 5649 5656 5662 5670 5677 5683 5687 5688 5690 5696 5699 5704 5705 5707 5709 5712 5713 5716 5717 5720 5720 5723 5720 5719 5720 5720 5720 5720 5720
5454 5472 5488 5499 5508 5519 5529 5543 5558 5567 5582 5594 5603 5617 5627 5633 5642 5646 5652 5659 5666 5674 5679 5680 5685 5690 5692 5696 5698 5698 5703 5704 5706 5708 5710 5713 5713 5714 5714 5713 5713 5713 5713 5713 5713
5444 5463 5476 5488 5497 5502 5514 5535 5551 5562 5572 5588 5595 5607 5617 5627 5629 5634 5642 5651 5657 5663 5670 5673 5679 5684 5687 5690 5691 5691 5696 5698 5701 5703 5705 5706 5709 5707 5705 5705 5705 5705 5705 5705 5705